Weather History for Saint Simons Island, GA

Change the Weather History Date:

Friday, January 3, 2014

  Actual Average Record
Temperature  
Mean Temperature 40 °F 51 °F  
Max Temperature 48 °F 60 °F 79 °F (1952)
Min Temperature 31 °F 43 °F 21 °F (1979)
Degree Days  
Heating Degree Days 25 14  
Month to date heating degree days 44 42  
Since 1 July heating degree days 463 573  
Cooling Degree Days 0 0  
Month to date cooling degree days 0 0  
Year to date cooling degree days 0 0  
Moisture  
Dew Point 20 °F    
Average Humidity 50    
Maximum Humidity 70    
Minimum Humidity 30    
Precipitation  
Precipitation 0.00 in 0.09 in 2.50 in (1977)
Month to date precipitation 1.63 0.26  
Year to date precipitation 1.63 0.26  
Snow  
Snow 0.00 in - 0.00 in ()
Month to date snowfall 0.0  
Since 1 July snowfall 0.0  
Snow Depth 0.00 in    
Sea Level Pressure  
Sea Level Pressure 30.25 in    
Wind  
Wind Speed 11 mph (NNW)    
Max Wind Speed 22 mph    
Max Gust Speed 35 mph    
Visibility 10 miles    
Events Snow    
T = Trace of Precipitation, MM = Missing Value Source: NWS Daily Summary

Daily Weather History Graph

Daily Weather History Graph

Search for Another Location

Airport:

Trip Planner

Search our weather history database for the weather conditions in past years. The results will help you decide how hot, cold, wet, or windy it might be!

Date:

Astronomy

Jan. 03, 2014 Rise Set
Actual Time 7:24 AM EST 5:35 PM EST
Civil Twilight 6:57 AM EST 6:02 PM EST
Nautical Twilight 6:27 AM EST 6:32 PM EST
Astronomical Twilight 5:58 AM EST 7:02 PM EST
Moon 9:00 AM EST (1/3) 8:30 PM EST (1/3)
Length of Visible Light 11h 04m
Length of Day
10h 11m
Waxing Crescent, 8% of the Moon is Illuminated
Jan 3
Waxing Crescent
Jan 7
First Quarter
Jan 15
Full
Jan 24
Last Quarter
Jan 30
New

Hourly Weather History & Observations

Time (EST) Temp. Windchill Dew Point Humidity Pressure Visibility Wind Dir Wind Speed Gust Speed Precip Events Conditions
12:53 AM 46.0 °F 42.5 °F 30.9 °F 56% 29.98 in 10.0 mi WNW 6.9 mph 16.1 mph N/A   Clear
1:53 AM 44.1 °F 37.4 °F 27.0 °F 51% 30.01 in 10.0 mi WNW 13.8 mph 25.3 mph N/A   Clear
2:53 AM 39.9 °F 32.1 °F 24.1 °F 53% 30.05 in 10.0 mi NW 13.8 mph 26.5 mph N/A   Clear
3:53 AM 37.9 °F 28.5 °F 25.0 °F 60% 30.09 in 10.0 mi WNW 17.3 mph 27.6 mph N/A   Clear
4:53 AM 34.0 °F 25.0 °F 19.9 °F 56% 30.12 in 9.0 mi NW 12.7 mph 23.0 mph 0.00 in   Clear
5:53 AM 32.0 °F 21.6 °F 19.0 °F 59% 30.16 in 10.0 mi WNW 15.0 mph 20.7 mph 0.00 in   Clear
6:53 AM 30.9 °F 21.7 °F 18.0 °F 59% 30.19 in 10.0 mi NNW 11.5 mph 25.3 mph N/A   Clear
7:53 AM 30.9 °F 20.2 °F 17.1 °F 57% 30.24 in 10.0 mi NNW 15.0 mph 21.9 mph N/A   Clear
8:53 AM 32.0 °F 22.5 °F 17.1 °F 54% 30.27 in 10.0 mi NNW 12.7 mph 24.2 mph 0.00 in   Clear
9:53 AM 34.0 °F 23.8 °F 15.1 °F 46% 30.30 in 9.0 mi NNW 16.1 mph 24.2 mph 0.00 in Snow Light Snow
10:53 AM 36.0 °F 26.7 °F 15.1 °F 43% 30.30 in 10.0 mi NNW 15.0 mph 24.2 mph 0.00 in   Clear
11:53 AM 39.0 °F 31.4 °F 15.1 °F 38% 30.30 in 10.0 mi NNW 12.7 mph 19.6 mph N/A   Clear
12:53 PM 41.0 °F 33.9 °F 12.9 °F 32% 30.28 in 10.0 mi NNW 12.7 mph 24.2 mph N/A   Clear
1:53 PM 42.1 °F 34.5 °F 15.1 °F 34% 30.28 in 10.0 mi North 15.0 mph 20.7 mph N/A   Clear
2:53 PM 44.1 °F 38.1 °F 15.1 °F 31% 30.29 in 10.0 mi North 11.5 mph 19.6 mph N/A   Clear
3:53 PM 43.0 °F 38.8 °F 16.0 °F 34% 30.31 in 10.0 mi North 6.9 mph - N/A   Clear
4:53 PM 43.0 °F 38.2 °F 17.1 °F 35% 30.33 in 10.0 mi NNE 8.1 mph - N/A   Clear
5:53 PM 39.0 °F 34.0 °F 18.0 °F 43% 30.35 in 10.0 mi NNE 6.9 mph - N/A   Clear
6:53 PM 37.9 °F 34.4 °F 19.0 °F 47% 30.37 in 10.0 mi North 4.6 mph - N/A   Clear
7:53 PM 37.0 °F 31.6 °F 21.0 °F 52% 30.38 in 10.0 mi North 6.9 mph - N/A   Clear
8:53 PM 36.0 °F 32.1 °F 24.1 °F 62% 30.39 in 10.0 mi North 4.6 mph - N/A   Clear
9:53 PM 36.0 °F 31.1 °F 24.1 °F 62% 30.38 in 10.0 mi North 5.8 mph - N/A   Scattered Clouds
10:53 PM 37.9 °F 35.5 °F 28.9 °F 70% 30.37 in 10.0 mi NNW 3.5 mph - N/A   Overcast
11:53 PM 37.9 °F 32.7 °F 28.9 °F 70% 30.34 in 10.0 mi North 6.9 mph - N/A   Mostly Cloudy